sat.trackr.live / text

‹ back to catalog

STARLINK-34321

NORAD 64267 · 2025-120M

PAYLOAD ACTIVE UNKNOWN

§ Identity

Operator
Country
US
Launch date
2025-06-04
Launch site
AFWTR
Launch vehicle
Mass (kg)
RCS (m²)

Purposes: comms

External: N2YO · Heavens-Above · Gunter

§ Orbital elements

Epoch: 2026-05-25T04:44:33.010656Z

Period
93.84 min
Inclination
53.1604°
Eccentricity
0.0000861
Mean motion
15.34452791 rev/d
Perigee alt
462.0 km
Apogee alt
463.1 km
Semi-major
6,840.7 km
B*
-6.8040e-4
RAAN
118.9233°
Arg perigee
84.1043°
Mean anomaly
276.0058°
Rev number
5,566

§ Raw data

STARLINK-343211 64267U 25120M   26145.19760429 -.00023332  00000+0 -68040-3 0  99962 64267  53.1604 118.9233 0000861  84.1043 276.0058 15.34452791 55669

JSON: /api/v1/satellites/64267 · /tle

For live sub-satellite position, see the globe view (requires WebGL).

§ Visibility from observer

Set your observer location to see the next 7 days of passes ≥ 10°. The values pass through the URL so the page stays shareable.

No JS? Fill the form by hand. The geolocation button needs JavaScript.